Regional Weather Roundup
Issued by NWS Cleveland, OH

Home | Current Version | Previous Version | Graphics & Text | Print | Product List | Glossary On
Versions: 1 2 3 4 5 6 7 8 9 10 11 12 13 14 15 16 17 18 19 20 21 22 23 24 25 26 27 28 29 30 31 32 33 34 35 36 37 38 39 40 41 42 43 44 45 46 47 48 49 50
000
ASUS41 KCLE 261110
RWRCLE
OHIO REGIONAL WEATHER ROUNDUP
NATIONAL WEATHER SERVICE WILMINGTON, OH
700 AM EDT SAT JUL 26 2014

NOTE: "FAIR" INDICATES FEW OR NO CLOUDS BELOW 12,000 FEET WITH NO
SIGNIFICANT WEATHER AND/OR OBSTRUCTIONS TO VISIBILITY.

OHZ001>008-015>018-024>027-034-035-043-044-261200-
   NORTHWEST OHIO

CITY           SKY/WX    TMP DP  RH WIND       PRES   REMARKS
DEFIANCE       PTCLDY    62  57  83 S3        29.93S
FINDLAY        CLEAR     61  56  83 S7        29.94S
TOLEDO EXPRESS CLEAR     59  56  89 CALM      29.93S
TOLEDO METCALF CLEAR     61  55  81 S3        29.94F
LIMA           PTCLDY    63  57  81 S8        29.94F
$$

OHZ009>014-019>023-028>033-038-089-261200-
   NORTHEAST OHIO

CITY           SKY/WX    TMP DP  RH WIND       PRES   REMARKS
CLE-HOPKINS    PTCLDY    63  59  87 S8        29.98S
CLE-LAKEFRONT  CLEAR     65  60  84 SE8       29.95S
CUY CO. ARPT   PTCLDY    63  61  94 S9        29.98
LORAIN-ELYRIA  CLEAR     65  60  84 SW3       29.97F
ASHTABULA      MOCLDY    61  56  83 S6        29.98F
AKRON-CANTON   PTCLDY    65  59  81 S5        29.99F
WOOSTER        CLEAR     61  58  90 CALM      29.99F
MANSFIELD      CLEAR     62  58  86 S6        29.99F
YOUNGSTOWN     MOCLDY    60  56  86 S5        29.99S
$$

OHZ042-051>053-060>062-070>072-077>081-261200-
  SOUTHWEST OHIO

CITY           SKY/WX    TMP DP  RH WIND       PRES   REMARKS
CINC-COVINGTON MOCLDY    66  60  81 S6        29.97S
CINC-LUNKEN    MOCLDY    65  62  90 CALM      29.98S
HAMILTON       MOCLDY    64  62  93 CALM      29.97F
DAYTON         MOCLDY    68  60  75 S6        29.97S
WRIGHT-PAT AFB MOCLDY    66  61  83 SE3       29.97S
DAYTON GENERAL MOCLDY    66  61  84 S7        29.96F
WILMINGTON     CLOUDY    64  60  87 S6        29.98F
$$

OHZ036-037-039>041-045>050-054>059-063>069-073>076-082>088-261200-
  CENTRAL AND SOUTHEAST OHIO

CITY           SKY/WX    TMP DP  RH WIND       PRES   REMARKS
COLUMBUS       MOCLDY    67  60  78 SE3       29.98S
OSU AIRPORT    MOCLDY    66  60  81 SE6       29.98S
BOLTON FIELD   PTCLDY    63  61  94 S6        29.99S
RICKENBACK AFB MOCLDY    64  58  79 SE6       29.98S
NEWARK         CLEAR     62  60  93 CALM      29.99S FOG
MARION         CLEAR     62  58  86 S7        29.97F
LANCASTER      MOCLDY    63  60  90 CALM      30.00S
ZANESVILLE     CLOUDY    65  61  87 CALM      30.00S
NEW PHILLY     MOCLDY    63  62  97 SE5       30.00S
$$



USA.gov is the U.S. government's official web portal to all federal, state and local government web resources and services.